Wind_Gust
17 16 16 17 17 16 17 17 17 17 17 17 17 17 16 17 17 17 17 17 17 17 18 18 18 18 18 18 19 20 16 18 19 14 7 28 10 17 14 7 8 14 15 4 9 10 5 4 5 1 7 5 5 4 6 4 4 4 8 11 4 8 5 10 9 12 2 5 9 15 7 6 4 5 10 10 17 17 14 15 7 16 14 8 6 13 14 13
17 17 16 17 17 17 17 17 17 17 17 17 18 18 17 17 17 17 17 17 17 18 17 17 18 18 19 18 18 19 17 14 16 15 35 15 15 15 17 14 7 14 17 5 11 7 13 2 4 5 10 7 2 6 4 9 6 8 7 8 12 10 15 8 7 8 4 9 7 10 10 2 4 2 4 12 2 4 17 13 11 14 13 13 12 12 13 12
16 16 16 17 17 17 17 17 17 17 17 17 18 18 18 17 17 17 17 17 17 17 17 17 17 18 18 18 17 16 14 12 7 17 34 21 32 27 21 19 12 21 19 10 7 13 11 15 10 8 4 5 2 5 4 9 9 9 10 8 13 10 9 8 6 8 5 5 15 12 10 4 6 3 2 7 6 6 15 16 10 12 14 12 10 11 12 12
16 17 17 18 17 17 17 17 17 17 17 17 17 17 17 17 17 17 17 17 17 17 16 17 18 18 18 18 17 10 5 8 12 18 8 5 20 24 20 18 17 19 9 5 10 10 6 11 8 9 7 3 6 2 9 9 12 7 7 11 10 6 6 9 7 12 12 6 7 6 6 9 4 3 6 11 10 3 5 12 17 19 19 15 14 15 13 14
17 16 18 18 18 18 18 17 18 17 17 18 18 18 18 17 17 17 17 17 17 17 17 17 18 18 18 18 16 6 3 7 16 4 5 4 8 14 22 19 19 14 13 9 10 6 10 11 9 4 7 13 3 2 7 5 9 7 11 4 6 1 4 13 7 8 7 7 4 4 4 7 3 5 10 11 8 9 13 15 13 23 22 24 21 17 14 16
17 17 17 17 17 18 18 18 18 17 17 17 18 18 18 18 17 17 17 17 17 17 16 16 17 17 18 18 7 6 3 11 6 6 7 8 7 14 19 18 19 14 14 12 9 8 11 5 11 9 9 6 6 10 8 7 5 13 6 4 8 9 11 4 3 6 3 10 7 9 3 7 3 3 5 7 8 7 8 11 18 24 25 22 18 20 17 16
16 16 17 18 17 18 18 18 18 18 18 17 18 18 18 18 17 18 18 17 17 17 16 16 16 17 17 10 2 2 7 29 11 11 11 11 8 11 17 18 17 13 13 13 10 16 6 9 8 7 9 5 3 13 9 2 2 7 13 1 6 5 13 9 11 10 7 7 12 5 13 7 5 5 5 4 6 3 3 17 20 18 17 17 20 17 22 22
16 16 17 17 18 18 19 19 19 19 18 18 18 18 18 18 18 18 18 18 17 17 16 16 16 16 14 7 4 5 4 23 29 7 6 13 13 17 17 11 15 11 13 15 15 11 10 13 16 9 8 17 8 14 3 4 1 7 11 5 8 4 10 10 9 10 7 10 11 8 11 18 3 4 4 5 2 4 10 17 19 20 18 15 13 16 12 13
15 16 17 18 18 19 19 19 19 19 19 18 19 19 18 18 18 18 18 17 17 16 16 15 15 14 8 5 4 3 20 21 7 8 10 10 11 15 19 18 9 14 11 9 8 11 12 11 6 11 13 11 4 4 3 6 13 11 11 5 5 9 8 8 8 10 8 8 6 4 11 13 5 7 3 4 4 8 15 17 20 21 19 18 16 16 15 15
17 18 19 19 19 19 19 19 19 19 19 19 19 19 19 18 18 18 18 17 16 16 16 15 14 12 5 6 2 5 17 10 7 3 7 13 12 17 8 8 16 12 14 7 7 11 15 20 17 8 10 5 5 7 4 7 11 7 7 8 8 11 7 7 7 8 5 8 3 10 7 10 6 7 10 2 4 13 15 17 17 23 21 18 16 14 13 14
17 18 18 19 19 18 19 19 19 19 19 19 20 19 19 19 18 18 17 17 16 15 14 14 11 9 4 3 8 18 13 3 2 7 7 10 15 18 16 15 11 16 11 5 11 16 5 10 6 11 4 10 8 6 5 9 5 5 6 1 5 8 6 9 5 13 2 10 10 9 11 3 4 4 9 6 6 14 20 15 16 13 17 18 15 14 12 12
18 19 19 19 19 18 18 18 18 19 19 19 20 20 20 19 19 18 17 17 16 15 13 13 11 7 5 5 9 27 5 4 4 4 11 9 9 7 7 14 15 15 17 14 14 11 6 11 6 11 12 5 5 2 7 5 2 2 4 7 10 9 11 4 10 7 9 9 7 9 2 4 3 5 5 9 9 10 18 18 16 16 15 13 12 11 10 13
18 19 19 19 19 19 19 19 18 20 19 19 20 20 20 20 19 19 18 17 15 15 14 12 7 4 4 7 25 26 14 7 2 6 4 5 4 3 5 6 9 6 12 14 10 7 6 6 6 6 5 5 5 11 5 4 4 1 4 4 6 9 7 5 3 3 7 6 9 9 7 14 14 5 7 3 8 9 13 14 15 13 12 12 11 13 10 6
18 19 19 19 19 19 19 19 19 19 19 20 20 20 21 21 21 20 19 17 17 15 12 9 3 6 6 20 22 8 10 10 12 14 11 8 6 6 4 5 9 6 3 3 3 11 9 3 4 3 3 3 7 5 3 8 6 7 3 7 4 1 8 7 3 1 9 5 6 2 6 16 9 4 10 7 11 17 15 13 16 14 13 13 13 12 13 9
18 18 19 19 20 20 19 19 19 20 20 21 21 21 21 23 22 21 20 17 16 12 9 7 4 5 5 28 13 19 22 5 10 19 11 12 10 2 6 6 8 8 5 2 4 2 8 5 4 4 9 5 5 5 9 4 8 4 7 7 8 5 11 12 6 3 9 3 4 6 4 13 14 11 10 8 11 12 16 16 16 16 16 15 14 15 14 12
19 19 18 20 19 19 18 18 19 20 20 21 22 22 24 24 24 22 20 16 15 12 6 3 10 9 6 26 15 6 5 8 15 14 12 16 15 10 8 10 5 4 4 6 7 3 3 9 9 13 8 3 6 9 6 5 6 9 7 4 4 2 9 6 2 2 6 4 2 4 12 7 5 7 6 2 11 11 15 15 17 16 17 16 16 16 11 9
20 19 20 20 18 19 19 18 19 20 20 20 23 23 25 24 23 21 17 12 7 4 9 7 8 8 8 14 7 7 13 12 5 3 10 14 17 10 13 7 7 6 6 2 3 4 4 11 4 7 4 8 7 9 5 5 7 5 5 7 5 3 2 6 13 2 4 4 3 5 7 7 4 4 12 6 5 8 8 13 15 16 16 16 15 13 11 12
20 19 19 19 19 17 17 18 18 19 19 19 20 22 30 27 20 7 4 4 5 4 5 6 6 3 31 22 16 10 3 6 7 11 8 9 12 10 9 8 4 10 9 4 3 10 6 12 5 12 4 5 7 8 16 13 14 7 4 5 3 2 2 2 5 3 4 5 2 3 3 13 10 12 10 8 9 7 11 9 9 11 9 11 12 13 12 13
20 19 19 18 17 17 17 18 18 18 18 16 20 23 23 8 7 5 11 12 11 5 7 16 15 15 9 4 10 8 11 8 3 9 7 14 7 7 6 7 11 13 10 9 8 9 7 8 7 5 13 8 11 11 15 10 10 8 9 8 5 3 3 3 8 7 2 4 3 7 11 12 13 12 16 15 10 3 5 6 4 5 7 9 10 9 11 12
19 18 18 17 16 16 17 18 18 18 17 13 14 17 8 4 3 7 3 5 14 13 6 8 23 9 13 6 5 5 8 5 5 10 7 6 20 8 6 7 4 7 11 15 8 8 11 11 13 12 9 8 6 12 13 10 10 8 7 10 2 1 7 7 6 11 1 4 7 8 8 13 13 13 13 11 11 20 17 9 3 6 10 11 7 9 10 8
18 18 17 17 17 16 16 16 15 14 15 10 11 8 5 4 4 10 7 15 18 15 17 10 24 21 21 3 5 17 19 12 4 4 9 8 12 19 9 8 7 6 7 10 16 6 10 10 11 9 12 13 14 10 9 8 5 8 8 2 3 2 5 6 4 5 4 5 7 11 18 13 10 12 15 16 23 23 18 14 11 5 6 6 4 6 6 8
17 17 17 17 17 17 18 17 15 14 10 3 6 8 12 10 3 5 5 17 9 25 23 24 6 20 21 21 11 7 5 9 16 9 6 12 12 23 7 10 8 14 3 6 9 10 11 14 8 13 8 6 7 6 5 11 7 4 6 4 2 8 9 12 5 4 4 5 12 13 20 9 10 13 18 22 16 12 11 12 11 12 11 8 2 2 4 6
17 16 17 17 17 17 18 17 14 14 9 5 5 6 12 10 5 5 4 9 19 17 22 22 19 25 28 17 15 3 4 12 15 9 13 10 9 14 14 11 8 9 7 8 16 9 10 7 13 7 9 10 4 6 9 8 8 9 6 5 8 6 2 8 9 4 5 7 7 13 21 7 10 8 14 17 15 10 12 12 15 16 17 13 12 9 7 5
16 16 16 18 17 17 18 14 13 10 5 8 10 15 6 3 6 10 2 11 12 8 15 20 25 14 21 19 16 18 12 12 10 10 7 18 19 8 17 10 9 10 13 8 11 14 10 5 9 12 9 11 8 5 9 9 5 2 6 7 5 3 5 9 6 9 3 4 9 16 15 12 16 16 20 17 10 20 23 21 24 22 19 15 15 18 14 8
15 15 16 16 16 17 16 17 9 5 3 3 10 14 16 16 11 5 3 11 10 20 7 4 13 15 17 9 6 13 8 8 13 8 12 16 14 14 10 13 15 9 8 7 10 9 9 5 8 13 7 5 8 5 6 13 8 5 7 11 11 5 6 5 5 9 13 7 6 7 14 8 7 8 12 14 18 25 22 26 25 23 22 22 23 21 20 19
15 15 16 15 15 16 16 12 3 10 12 10 8 3 5 7 9 7 5 7 12 12 5 14 20 19 23 9 14 12 7 13 14 18 12 15 12 16 15 13 16 13 7 11 13 14 13 6 8 11 10 8 8 9 6 10 10 8 16 14 9 8 4 1 6 3 4 7 4 4 14 12 7 14 14 13 19 21 22 24 21 21 22 21 20 20 22 22
15 15 15 14 13 13 10 8 8 12 9 7 3 8 7 9 6 7 9 7 10 20 18 5 14 21 25 15 21 13 9 18 6 8 9 10 16 5 16 7 8 7 12 13 13 15 9 7 7 8 7 8 8 10 8 13 14 14 6 16 11 7 6 7 5 8 8 5 6 9 11 17 6 7 5 10 18 20 22 21 21 21 20 21 20 21 21 22
14 15 14 13 13 9 9 13 13 10 14 3 6 8 11 12 5 5 6 7 21 13 15 12 17 11 10 13 20 24 9 8 19 13 9 9 10 6 13 11 13 12 8 12 15 8 9 12 11 8 4 7 13 11 11 13 18 15 7 16 15 14 12 8 7 5 3 2 9 10 7 16 5 7 5 5 16 17 18 18 19 20 20 20 21 22 20 20
14 14 13 13 13 13 8 10 10 17 7 6 12 14 15 9 6 6 8 14 14 12 12 16 13 11 5 14 16 16 4 11 11 8 7 9 5 13 12 11 11 10 3 13 17 7 7 12 17 16 15 13 11 9 17 19 13 12 11 10 8 10 9 7 6 8 3 8 9 6 5 15 5 8 10 4 12 13 13 14 15 17 17 19 21 20 21 19
14 14 13 12 9 6 4 6 16 14 12 16 15 17 13 6 6 6 9 15 9 7 5 10 17 15 11 22 18 14 8 4 7 10 10 17 6 5 6 6 12 11 7 3 7 11 3 5 9 13 16 16 12 7 18 19 15 9 13 12 10 12 6 5 11 8 9 4 13 5 3 11 9 7 5 7 9 8 8 9 13 16 18 19 18 19 19 19
15 15 13 12 8 8 12 12 11 8 8 11 18 16 9 6 9 10 10 27 14 5 5 8 12 13 18 20 17 14 7 3 6 18 11 9 6 6 9 10 8 11 5 4 6 7 6 3 5 11 8 7 7 7 8 12 6 11 12 11 12 7 9 10 8 10 12 11 10 2 4 4 11 4 4 12 12 10 10 12 14 16 17 18 17 19 19 19
14 14 13 11 14 8 12 10 3 3 13 17 16 9 10 10 7 15 18 4 13 13 5 9 5 17 20 14 18 24 21 5 6 19 19 18 11 17 12 13 17 14 12 7 15 5 6 8 7 9 6 14 7 8 3 2 2 9 11 14 17 12 11 9 6 11 10 16 3 3 4 8 9 4 8 11 13 12 12 14 15 15 16 17 18 20 20 19
11 11 17 16 13 12 20 21 14 15 14 14 11 3 9 10 16 16 18 10 13 9 9 7 8 8 13 11 16 19 9 10 5 8 15 10 15 7 3 11 11 17 15 8 5 7 12 7 5 9 5 9 14 15 7 6 5 9 14 16 16 14 12 13 7 9 8 9 3 5 5 11 5 7 9 13 12 13 15 16 16 16 17 17 19 19 20 21
12 14 15 12 15 19 18 12 11 5 8 11 3 7 7 8 16 11 18 8 6 6 10 8 6 8 12 24 13 17 12 3 12 14 13 16 14 15 7 3 9 9 9 5 17 11 8 11 16 8 11 9 16 15 20 15 13 18 8 19 17 18 23 15 14 17 15 11 5 7 10 13 12 6 7 10 10 14 15 15 16 17 15 15 16 18 19 20
14 16 15 15 17 20 19 16 8 5 4 6 5 11 14 20 6 5 8 6 6 11 12 11 14 9 10 11 7 15 11 12 6 13 9 18 15 16 16 9 4 8 8 17 9 10 9 16 13 11 2 11 16 10 11 13 14 5 10 11 13 15 15 11 16 13 10 11 7 10 8 3 6 4 6 7 12 15 14 16 15 17 16 15 18 20 20 19
14 12 10 15 10 8 14 14 11 9 7 4 12 13 19 13 10 8 10 13 8 9 16 24 11 12 10 7 6 15 6 14 7 13 7 13 10 18 11 13 17 12 12 14 12 8 6 11 5 10 4 12 10 11 9 16 23 13 10 15 12 7 21 15 6 4 9 13 7 5 7 6 4 6 6 9 13 13 15 16 15 14 14 15 18 18 19 19
14 16 14 8 11 7 10 14 19 15 9 8 10 13 11 13 8 7 12 11 9 6 11 11 14 14 16 18 13 17 11 11 9 13 13 7 10 6 12 7 6 8 10 15 5 9 17 12 6 5 9 4 3 4 7 4 14 20 14 13 6 6 11 19 15 6 9 14 10 3 7 12 6 12 4 8 13 13 14 14 14 15 17 19 19 19 19 19
16 13 17 17 16 11 13 18 20 12 8 9 14 7 4 9 6 11 11 17 8 9 16 11 17 8 16 14 13 19 8 17 7 10 11 7 18 5 8 12 4 14 11 6 9 5 5 7 5 1 2 3 5 11 12 6 4 21 16 12 18 8 8 7 18 9 10 10 10 5 5 5 3 5 5 9 11 12 14 14 15 16 17 17 17 19 19 20
11 10 13 6 8 17 19 20 16 12 6 14 10 11 10 12 6 7 11 8 5 16 17 17 15 8 13 15 9 9 17 22 10 8 16 10 12 6 6 9 6 5 10 9 9 6 7 11 9 5 3 3 8 10 14 4 7 8 12 10 3 14 9 12 16 12 19 8 8 5 7 12 10 5 5 4 11 14 15 16 16 13 14 14 14 15 17 19
8 8 6 5 10 16 20 16 9 4 9 10 6 14 5 8 5 11 21 12 9 5 13 11 7 8 9 8 12 14 13 12 15 8 8 8 10 2 4 4 10 7 9 13 9 4 4 5 8 9 7 5 11 9 11 13 14 6 12 6 5 9 6 13 7 7 12 21 14 15 13 11 5 4 6 11 12 14 15 16 13 11 11 12 13 15 16 16
5 7 6 8 12 16 16 5 7 9 10 6 3 8 7 10 9 17 19 13 19 19 26 18 7 9 10 11 8 10 13 7 10 10 8 5 7 11 3 6 5 7 5 4 5 6 9 3 3 6 12 9 2 2 3 7 6 13 18 14 16 16 11 9 8 5 8 17 19 17 14 7 7 10 10 15 12 13 12 16 14 10 12 12 14 14 15 15
6 9 6 9 12 15 10 13 10 5 9 6 9 9 9 7 16 24 24 16 17 28 17 24 8 5 7 9 10 8 15 10 6 8 5 11 3 6 4 4 3 6 20 18 13 5 11 9 16 8 5 5 2 4 5 6 12 11 9 6 4 6 15 13 14 8 9 5 9 7 16 7 8 9 9 11 14 14 12 15 15 11 11 12 14 14 14 15
9 6 5 14 13 9 4 6 3 7 7 9 5 8 4 15 17 18 21 20 19 14 12 10 6 6 3 9 6 11 11 17 5 8 6 7 5 2 8 5 8 9 8 10 5 7 10 14 13 5 5 6 7 6 5 4 4 14 13 7 6 5 5 13 11 15 17 7 8 5 8 8 7 8 8 11 12 12 14 15 14 12 11 13 14 14 15 15
6 8 10 6 12 7 4 10 8 3 8 6 3 7 5 16 16 21 17 15 10 9 5 5 4 3 6 5 14 16 7 18 5 6 9 3 11 4 8 4 6 9 7 18 17 12 18 5 16 8 9 9 10 11 10 7 14 13 6 6 3 2 5 4 12 5 16 8 8 16 15 10 10 9 8 10 12 13 17 16 13 11 11 12 12 13 13 13
10 6 7 10 9 7 6 6 8 7 5 3 5 7 11 12 14 22 19 15 6 6 5 8 5 5 11 5 13 10 7 15 17 6 7 4 9 3 8 11 3 7 3 5 11 12 18 5 11 14 13 11 10 8 9 5 5 5 7 9 10 9 5 5 9 6 10 6 4 11 10 7 11 10 10 9 11 14 16 13 11 12 12 12 11 12 13 13
11 18 9 9 12 8 7 3 2 5 4 5 4 10 5 15 16 10 11 11 5 5 7 6 3 6 10 14 16 14 14 10 15 15 7 8 6 10 6 9 8 8 12 16 8 14 16 8 8 9 16 18 11 7 3 4 6 11 4 13 13 8 6 4 10 10 13 11 7 5 12 20 13 10 10 9 10 12 11 12 13 12 12 11 11 12 12 13
8 11 16 11 6 8 8 3 2 2 5 5 9 4 7 12 13 16 8 5 6 6 8 12 8 12 9 18 11 16 9 19 18 16 7 7 3 6 6 4 7 10 14 12 7 16 13 15 11 16 20 11 6 10 7 6 12 9 10 9 13 11 7 8 9 11 11 21 3 5 17 18 13 12 10 9 9 10 12 13 11 12 13 12 11 11 13 16
10 7 4 7 9 10 5 9 7 2 3 4 8 4 9 8 5 7 6 3 2 8 7 11 17 11 4 10 11 19 7 12 9 13 4 6 7 6 10 11 8 9 7 8 6 15 15 13 3 18 15 13 9 10 14 21 18 17 17 16 18 14 14 11 4 5 3 11 16 17 18 15 12 11 11 10 10 11 13 11 13 13 12 11 12 15 16 16
8 7 9 3 4 3 6 3 6 7 5 5 6 4 10 7 5 3 2 8 13 12 8 10 10 12 7 5 11 15 6 20 9 6 9 6 5 6 9 4 5 10 9 8 10 8 21 13 6 15 20 16 12 10 10 22 14 19 20 19 16 19 19 16 12 7 9 11 19 25 19 16 10 10 11 11 10 12 11 11 13 13 12 13 14 15 16 16
7 7 6 6 6 3 1 2 5 6 5 8 10 11 9 3 2 4 9 11 6 6 6 17 5 12 13 13 10 12 3 6 14 14 5 7 5 4 5 6 5 5 9 7 6 6 16 10 11 4 12 13 10 9 12 14 18 23 17 16 16 16 17 16 15 15 22 22 20 21 20 15 8 10 12 11 10 11 13 13 12 11 12 13 14 15 15 15
8 8 8 5 5 3 3 3 7 7 4 4 8 10 3 2 8 8 9 6 3 6 9 12 9 15 14 20 18 12 4 10 10 8 10 8 13 6 10 5 5 6 6 7 5 6 14 16 5 5 14 8 4 10 12 18 22 22 19 15 13 9 11 10 8 8 5 16 20 21 15 13 11 12 13 12 12 13 12 11 12 12 12 13 14 15 14 14
10 8 7 5 6 7 5 2 7 8 10 13 15 7 5 2 2 4 21 11 12 6 4 8 7 22 10 19 12 5 2 4 6 5 7 8 12 8 8 7 4 5 6 7 3 11 8 25 15 8 19 8 6 2 4 5 8 12 11 9 11 11 10 10 11 13 10 6 20 17 11 11 14 13 15 13 13 12 13 12 11 12 12 12 13 13 11 12
Wind_Speed
13 12 12 13 13 13 12 13 13 13 13 13 13 13 13 13 13 13 13 13 13 14 14 14 14 15 14 14 15 16 13 10 11 7 4 14 6 12 11 4 6 10 11 2 6 7 3 2 3 1 4 2 1 1 2 0 1 1 2 5 1 3 2 4 4 6 0 1 5 10 5 4 1 2 3 5 10 9 8 8 3 8 8 4 3 5 10 8
12 13 13 12 13 13 13 12 13 13 13 13 13 13 13 13 13 13 13 13 14 14 14 13 14 14 15 14 15 15 12 8 9 10 21 5 11 12 13 11 6 11 12 3 8 5 9 1 1 4 5 2 1 1 2 1 1 2 2 3 7 4 6 4 3 5 0 4 5 6 3 1 2 2 1 5 0 1 9 7 6 6 7 7 6 7 9 8
12 12 12 13 13 13 13 14 13 13 13 13 12 13 13 13 13 13 13 13 13 13 13 13 14 14 14 14 14 13 9 6 3 9 19 13 23 21 16 13 10 16 11 6 4 8 7 10 7 4 1 2 0 2 1 1 3 3 4 3 6 5 4 4 4 4 3 3 9 8 3 3 5 1 1 3 3 4 8 5 4 3 5 5 5 7 7 8
12 13 14 14 14 13 13 13 13 13 13 13 13 12 13 13 13 13 13 13 13 13 13 13 14 14 14 14 14 6 3 4 3 7 3 3 14 18 16 13 13 15 6 4 6 5 4 8 6 6 2 1 1 0 3 3 2 2 1 4 4 3 1 4 5 8 8 3 4 4 3 3 2 2 2 6 6 1 3 6 9 12 11 10 8 8 8 9
13 12 13 14 14 13 14 13 14 13 13 13 13 13 13 13 13 12 13 13 13 13 13 12 13 14 14 14 11 4 0 3 4 2 2 3 5 9 15 14 15 10 9 6 6 4 7 7 5 1 3 3 0 1 2 2 3 3 5 3 3 1 2 7 5 6 4 4 3 2 4 4 0 2 6 7 4 3 7 10 8 13 12 13 13 11 8 9
13 13 13 14 13 13 14 14 14 13 13 13 13 13 13 13 13 13 12 12 13 13 13 12 13 13 14 14 4 2 0 0 1 2 6 6 5 7 13 14 15 10 9 8 5 4 7 3 7 3 1 2 4 4 2 3 2 4 2 3 5 5 6 1 1 3 2 2 3 5 0 4 2 1 2 4 4 2 3 7 11 15 15 12 9 11 11 10
12 13 12 13 14 13 14 14 14 14 13 14 13 14 13 13 13 13 13 13 13 13 12 12 12 13 13 8 1 1 3 8 5 7 6 7 6 8 13 14 13 9 9 7 6 6 3 6 5 4 4 2 1 3 4 0 0 2 3 0 4 4 8 6 7 7 5 3 7 1 6 4 4 1 2 2 3 1 2 8 12 11 9 9 11 10 13 14
12 12 13 13 14 14 14 14 14 14 14 14 14 14 14 13 13 13 13 13 13 12 12 11 12 12 11 3 1 1 1 9 15 6 5 9 9 12 13 7 10 7 9 10 10 6 6 8 9 4 3 9 3 7 1 1 0 3 4 3 4 2 6 6 6 7 5 6 7 5 6 12 1 1 1 2 2 2 6 9 12 12 11 8 7 9 7 8
12 12 14 14 14 15 15 15 14 14 15 14 14 15 14 14 14 13 12 12 12 12 11 11 11 10 5 2 1 1 8 9 3 6 6 7 8 10 14 8 6 8 5 5 6 7 7 4 3 6 6 6 2 3 1 3 5 5 6 2 2 5 5 5 6 7 5 4 2 2 7 9 3 5 1 2 2 4 9 9 12 13 11 10 10 9 9 9
13 14 14 15 15 14 14 15 15 14 15 15 14 15 15 14 13 13 13 12 12 11 11 10 10 9 3 2 0 1 8 7 4 2 5 9 8 12 7 5 11 7 7 5 5 7 8 9 11 5 7 2 3 2 3 4 4 4 5 5 5 8 4 4 2 5 2 4 1 4 5 4 4 1 4 1 1 8 8 11 11 15 13 12 9 9 8 9
14 14 14 14 15 14 14 15 14 14 14 15 14 15 15 14 14 14 13 12 12 11 10 10 8 6 1 1 3 8 6 2 1 3 5 7 10 11 10 10 7 7 7 3 6 10 2 5 4 3 2 2 4 3 2 3 3 3 3 0 4 5 4 6 4 9 1 4 6 6 6 1 2 2 2 3 4 7 14 10 11 8 9 11 10 9 7 7
14 15 15 15 15 15 14 14 14 14 14 15 14 15 16 15 14 14 13 12 12 10 9 9 7 2 2 2 5 10 3 2 3 2 6 7 3 2 4 9 10 10 11 8 8 5 4 7 4 4 3 2 1 1 3 3 1 1 3 3 5 6 4 2 5 4 5 4 4 6 0 2 0 2 3 3 4 6 12 12 10 10 9 8 8 7 6 8
14 15 15 15 15 15 15 15 14 14 15 15 15 16 15 15 15 14 14 12 10 10 10 8 4 2 0 3 12 14 9 3 1 4 3 2 1 2 3 4 4 4 6 9 6 5 4 3 3 3 2 2 2 1 1 3 1 1 2 1 3 5 3 2 1 2 4 2 6 5 2 6 6 2 4 2 4 5 9 9 9 7 8 7 7 8 6 3
14 14 15 15 15 15 15 14 15 14 15 15 15 16 15 16 16 15 14 13 12 11 8 6 1 2 2 7 8 4 7 6 8 10 7 4 4 3 2 3 5 3 0 1 2 6 6 1 3 1 1 2 1 2 1 4 4 3 1 3 1 0 3 3 0 0 5 2 5 1 2 9 1 3 7 5 8 12 10 8 10 9 8 8 8 7 7 6
15 14 14 15 15 15 15 14 14 14 15 15 16 17 17 17 17 16 15 12 12 9 6 5 2 2 1 10 7 13 17 2 6 12 6 7 6 0 3 3 4 4 0 1 0 1 5 3 2 1 2 1 0 2 2 1 4 2 2 2 3 3 4 7 3 2 5 0 2 3 1 7 6 7 6 3 5 8 10 11 11 10 10 9 9 9 8 7
15 15 14 14 15 15 14 14 14 15 15 16 17 18 19 19 18 17 15 12 10 8 3 1 4 4 2 9 4 3 2 4 8 8 7 11 9 6 5 6 3 3 3 2 2 1 2 4 3 6 2 2 3 5 2 1 1 5 3 2 1 1 4 3 1 1 4 0 2 1 3 2 2 5 5 1 5 5 6 9 10 11 11 10 9 8 5 4
16 15 14 15 15 14 15 14 14 15 15 15 18 18 20 18 18 16 12 8 4 2 4 1 4 4 1 5 3 2 5 5 3 1 5 8 11 6 9 5 2 3 4 0 2 2 1 4 0 2 3 3 3 4 2 1 2 1 2 2 2 1 0 1 7 1 3 2 1 3 1 2 2 3 7 4 1 4 4 5 7 9 9 9 7 5 5 6
16 15 14 14 15 14 13 13 14 14 15 15 15 17 17 21 14 2 2 2 2 2 2 2 2 1 11 8 5 4 1 3 1 4 6 3 8 7 6 2 3 7 5 1 0 4 1 3 2 5 1 2 3 4 7 6 6 3 1 2 0 0 1 1 0 1 2 3 0 1 0 6 4 8 7 6 6 4 6 1 2 5 4 5 5 6 6 7
16 14 15 14 13 13 13 14 14 14 14 13 16 19 17 5 3 3 5 5 4 2 1 3 5 4 2 1 6 4 5 5 1 5 3 8 3 3 3 4 8 8 4 3 1 5 1 3 3 2 6 4 6 6 8 3 6 5 6 4 2 2 1 1 4 3 1 0 1 3 4 2 7 8 11 10 6 2 3 4 1 2 3 4 5 4 5 6
15 14 13 13 13 13 13 12 14 14 14 9 7 7 2 1 0 2 1 2 6 7 2 5 12 4 8 3 3 2 5 4 1 5 4 3 10 5 2 3 2 3 5 6 4 4 4 5 7 7 5 6 5 8 9 6 7 5 5 6 2 0 4 4 4 7 1 0 2 4 5 7 7 7 7 6 6 12 11 6 2 0 1 3 3 3 4 5
14 14 13 13 13 13 12 13 12 11 12 5 6 3 0 1 1 3 2 8 12 10 10 5 16 12 8 1 3 10 8 7 2 2 5 3 6 12 2 3 2 2 3 5 8 1 5 5 6 6 8 9 10 6 6 6 4 6 5 2 1 1 2 3 1 2 2 2 2 7 11 8 6 8 8 7 14 15 12 9 8 3 1 0 0 3 4 5
13 13 13 13 13 13 13 14 12 12 7 2 2 2 4 4 1 2 1 5 5 16 15 16 4 11 10 13 4 4 1 3 11 6 2 7 5 10 2 4 3 7 1 3 5 3 4 7 5 9 5 4 5 4 4 8 4 3 4 3 1 2 5 8 3 2 2 3 1 7 12 5 6 5 10 13 10 7 6 8 7 8 8 5 2 2 3 4
13 12 13 13 13 14 13 14 10 11 3 0 2 3 5 4 3 2 1 3 8 8 13 14 11 16 16 7 4 2 2 5 5 5 3 5 5 8 7 5 4 4 2 5 8 5 4 3 9 4 6 7 3 4 6 6 5 5 4 3 4 3 1 1 4 2 3 2 3 7 13 4 7 4 8 10 9 4 6 8 10 11 12 9 8 6 2 3
12 12 12 13 13 13 14 12 9 6 2 5 6 8 3 1 2 5 0 3 4 3 7 11 15 7 11 6 4 11 7 3 4 6 4 5 9 4 7 6 6 4 7 5 8 8 5 3 6 8 6 7 5 3 6 6 3 1 4 3 2 1 2 4 2 3 1 3 5 10 7 5 9 9 10 10 6 9 12 13 14 13 12 9 10 11 9 6
11 12 12 12 12 13 12 12 4 2 2 2 5 9 10 9 5 2 0 3 1 6 4 1 5 6 7 4 3 5 4 1 7 4 3 8 6 5 4 3 4 4 5 5 7 6 5 1 6 9 4 4 5 3 4 8 6 1 4 7 6 3 4 3 3 5 4 1 1 4 4 2 4 5 7 7 7 13 13 16 16 14 14 13 14 14 13 12
11 11 12 11 11 11 12 5 1 4 6 4 4 2 2 4 5 4 2 1 4 3 2 5 7 6 6 3 6 5 5 4 8 8 5 6 6 6 2 2 3 7 5 7 7 3 5 3 5 7 6 5 5 5 4 6 6 4 6 8 5 5 3 1 3 1 1 2 2 1 5 2 2 6 7 7 8 12 12 15 13 13 12 12 12 11 12 13
11 11 11 10 9 9 5 2 3 7 5 2 1 5 3 4 3 4 1 1 3 4 7 0 4 2 6 8 10 7 2 6 2 4 4 3 7 0 7 2 2 2 3 2 2 3 3 5 4 5 4 4 4 5 3 7 8 3 2 11 7 4 4 4 2 5 3 2 1 5 4 7 1 4 3 6 6 12 14 13 14 12 13 13 13 13 13 13
11 11 10 10 9 7 4 4 5 4 6 1 2 4 6 5 2 1 0 1 2 2 3 3 4 2 2 7 13 9 4 4 6 4 6 5 5 0 5 6 6 8 4 5 7 3 6 5 7 5 3 3 7 5 8 8 7 4 4 10 9 10 7 5 4 2 0 1 5 4 3 7 0 2 3 4 6 11 12 11 12 12 12 12 12 12 12 12
10 10 10 8 10 9 5 3 3 9 2 2 6 7 5 5 2 1 2 2 5 0 2 5 5 4 1 7 6 8 1 3 2 3 3 5 2 4 3 7 5 6 2 8 8 2 2 7 11 10 8 6 5 6 12 11 5 5 6 4 5 6 5 4 3 4 1 2 3 1 2 5 1 3 3 0 5 8 7 8 9 9 10 11 11 13 13 12
11 10 10 9 6 3 2 2 8 9 6 8 7 9 8 2 2 1 3 3 1 0 1 1 4 6 6 10 6 6 3 0 2 2 4 4 2 2 2 3 5 6 3 1 3 5 1 4 5 5 6 8 7 4 11 13 7 6 9 7 5 6 4 3 5 2 4 1 5 0 2 4 1 2 2 2 3 4 4 4 7 9 11 12 11 11 10 10
11 11 9 8 3 2 5 6 6 5 4 5 9 9 3 1 2 2 3 7 4 1 1 1 3 7 8 11 7 6 4 0 2 8 3 2 2 3 3 4 3 5 2 2 2 4 3 2 1 3 4 3 4 3 2 3 3 8 3 5 7 4 4 4 3 5 4 3 4 2 1 2 4 1 1 6 7 5 4 6 8 10 11 11 11 10 11 11
10 10 10 5 5 4 5 4 2 1 7 9 9 4 3 2 3 4 4 1 1 4 1 1 2 5 11 9 7 9 7 2 2 7 9 6 6 7 5 6 5 4 5 3 5 2 2 3 2 5 2 9 2 4 2 1 0 5 6 8 9 2 2 0 1 2 2 6 1 2 3 4 5 2 4 7 8 7 7 7 8 10 10 11 11 11 10 10
9 9 13 9 8 6 11 10 7 7 8 8 6 1 2 2 3 5 5 3 2 4 2 3 3 5 8 7 7 10 6 5 2 2 8 2 8 3 1 5 6 6 5 3 3 2 5 3 2 4 2 3 8 7 2 2 1 5 7 7 7 3 3 4 1 0 3 3 1 3 2 3 2 3 5 8 7 8 9 9 10 10 11 11 11 11 11 12
9 11 7 6 8 10 9 5 4 2 5 5 2 3 3 1 4 6 8 3 2 3 5 2 4 5 7 8 6 7 5 1 7 3 7 6 8 6 1 1 6 5 4 2 4 4 3 3 7 4 2 4 7 7 11 8 6 8 3 9 7 7 5 3 3 5 6 4 2 3 4 3 5 1 5 6 6 9 8 9 10 10 10 10 10 11 12 12
11 10 8 8 8 11 11 8 4 3 2 3 2 3 4 5 2 2 2 1 2 6 6 6 7 4 5 3 2 7 4 1 3 8 3 9 6 5 6 4 2 5 3 7 2 2 5 5 6 6 1 6 9 5 5 7 6 0 4 5 6 6 7 4 6 4 3 4 3 5 1 1 1 2 2 5 7 9 8 10 10 10 9 8 9 11 11 11
10 5 5 5 4 4 8 6 7 5 4 1 3 2 6 3 2 1 3 7 3 3 8 15 3 4 4 3 1 9 3 4 3 5 0 7 5 7 5 4 5 6 5 5 4 2 3 2 2 6 2 8 6 6 3 8 5 4 5 5 5 2 11 6 2 2 6 7 1 1 2 1 2 2 3 6 8 8 9 10 9 8 8 9 10 10 11 10
6 6 5 4 6 4 6 8 9 7 4 2 3 4 2 2 3 1 2 5 2 3 3 4 5 3 4 5 4 9 3 6 3 4 3 2 1 1 4 2 3 4 6 6 1 3 7 4 2 2 6 1 1 3 4 2 6 7 3 6 2 3 5 7 5 1 3 5 1 1 2 5 2 2 2 5 8 8 9 8 8 9 9 11 10 10 11 11
7 5 8 9 8 6 8 11 11 5 2 3 3 3 0 2 2 3 4 8 5 1 6 3 6 5 4 4 4 9 4 8 3 3 4 2 1 2 5 2 2 7 7 3 3 1 2 1 1 1 1 1 3 7 7 4 3 11 8 6 6 1 3 3 6 1 2 1 1 1 2 1 1 1 1 6 7 8 8 7 7 9 10 10 10 11 11 10
5 3 4 2 3 10 10 11 8 6 2 5 3 3 3 5 0 1 6 2 1 5 5 9 5 2 6 5 3 3 8 6 4 3 6 1 3 2 1 4 1 4 7 6 2 1 2 2 2 2 1 1 4 4 4 1 5 5 7 4 1 5 3 4 4 5 8 3 3 0 3 3 4 1 3 2 7 9 8 7 8 7 8 7 8 8 10 10
3 2 2 2 4 9 11 9 4 1 3 4 2 3 2 3 1 5 12 3 2 1 5 4 4 1 3 4 7 5 4 7 8 2 3 1 3 0 1 2 4 3 6 7 3 1 1 1 1 3 4 1 2 3 5 7 7 3 5 1 1 3 2 5 2 2 4 7 5 5 4 3 1 1 3 6 7 8 8 9 7 6 7 7 8 9 9 10
2 3 1 4 7 8 8 2 1 3 3 1 1 3 3 3 3 8 12 8 5 7 10 9 2 4 4 3 4 5 2 2 3 2 2 0 2 2 1 2 1 3 1 1 2 1 1 1 0 2 6 4 1 1 2 4 2 6 8 6 8 8 5 5 2 2 4 7 6 6 4 2 3 4 5 9 6 8 7 10 8 6 6 7 8 9 9 9
2 2 2 5 7 9 3 6 1 1 2 3 3 2 2 4 4 14 13 8 10 9 8 10 5 1 2 3 5 2 5 3 2 3 1 5 0 2 1 3 2 4 7 5 6 2 4 3 7 4 1 2 1 1 3 2 6 5 5 2 2 2 7 5 5 3 4 1 4 3 6 3 3 4 4 5 7 8 6 7 9 6 7 7 8 8 8 9
1 2 2 9 7 4 1 2 1 1 1 3 3 4 2 3 6 5 7 11 8 7 4 3 3 2 1 2 2 4 5 4 2 2 2 4 2 0 4 1 6 6 5 1 3 1 6 3 5 2 2 3 4 3 2 2 2 8 7 4 3 1 1 6 3 7 7 3 3 1 2 2 3 4 4 6 8 7 5 8 9 7 6 7 9 9 9 9
2 1 3 3 7 2 1 3 2 1 3 3 2 2 1 5 6 10 8 9 2 3 0 1 2 1 1 1 5 5 3 5 3 3 3 0 3 2 5 3 4 2 2 8 6 5 2 1 7 2 2 4 4 4 3 3 6 5 2 3 2 0 3 2 6 2 7 4 5 7 6 4 4 5 5 5 7 8 8 10 8 7 6 7 7 7 7 8
2 1 2 2 3 3 1 1 4 3 2 2 1 2 5 4 7 13 11 9 3 3 1 2 0 2 3 1 4 4 3 8 2 3 3 1 3 1 6 8 1 3 1 3 7 6 8 1 3 6 5 4 2 1 2 2 1 0 2 4 6 5 3 2 4 1 4 3 2 4 3 2 6 6 6 5 6 9 10 8 6 7 7 7 6 7 7 8
2 4 1 2 2 3 3 1 1 2 1 0 1 3 1 7 6 6 8 6 3 2 1 1 2 3 4 8 7 6 6 5 6 4 1 1 1 2 3 6 5 4 8 12 5 7 5 3 4 4 8 9 4 2 1 1 3 4 2 9 7 4 3 2 4 5 6 5 3 2 6 10 7 6 6 5 6 8 7 6 8 7 7 7 7 7 7 7
1 2 3 3 1 4 3 1 1 1 1 1 1 0 3 6 4 6 6 1 1 3 1 4 2 3 3 10 4 8 4 11 11 9 2 4 0 1 5 3 4 6 11 6 4 6 5 7 6 10 13 6 3 6 4 4 7 5 5 6 8 7 3 4 4 4 6 11 0 1 11 9 8 7 6 5 5 6 7 8 7 6 8 7 7 7 7 8
1 2 1 2 2 3 1 4 5 0 1 2 3 1 4 4 3 3 2 1 1 3 1 5 9 6 2 6 5 6 2 6 3 4 1 3 2 3 4 7 5 5 4 3 3 6 6 5 2 11 9 9 5 5 9 12 12 10 11 11 12 9 9 7 2 2 0 4 8 10 12 9 7 7 7 6 6 7 8 7 7 8 7 7 7 8 9 9
2 1 3 1 0 1 2 1 4 4 2 2 2 1 4 4 4 1 0 4 5 6 3 3 6 7 5 3 4 5 1 8 3 2 1 2 2 2 2 1 3 6 5 3 5 2 8 6 3 9 12 10 8 6 5 14 8 12 13 13 11 13 12 10 8 4 5 6 11 15 12 10 5 6 7 7 6 7 7 6 7 8 7 7 8 8 9 9
1 1 2 3 2 2 0 1 2 4 2 3 1 5 3 2 1 2 3 4 1 3 3 9 3 8 8 8 6 4 1 3 9 6 2 4 1 1 1 2 2 2 5 3 1 4 7 2 7 0 6 7 7 6 8 9 11 14 11 11 11 10 11 10 9 10 14 13 13 14 13 9 4 7 8 7 6 6 7 8 8 7 7 8 8 8 9 9
2 3 3 2 2 0 1 2 4 4 1 1 3 6 2 2 3 3 4 1 1 1 3 8 5 10 9 13 12 8 2 6 7 6 6 4 6 2 3 1 2 3 3 3 2 2 6 6 1 0 6 3 2 6 8 12 15 15 12 10 9 6 7 5 4 4 1 9 11 13 8 5 6 8 8 8 7 8 8 7 7 7 7 7 8 8 8 8
4 3 4 1 1 3 0 1 3 4 2 6 6 4 0 1 1 2 6 5 7 4 1 4 5 12 5 13 8 3 1 3 5 4 4 5 7 5 5 4 2 2 2 2 0 5 2 9 6 3 9 2 2 0 2 3 5 7 6 5 7 6 6 6 7 8 6 4 11 8 4 5 8 8 9 8 8 8 7 7 7 7 7 7 7 7 7 7
Wind_Direction
327 319 318 317 320 321 320 321 320 320 321 324 325 324 324 327 328 327 325 327 327 326 327 330 329 324 324 328 329 327 338 335 320 323 288 240 169 225 200 153 171 198 182 85 110 101 61 69 107 23 79 99 255 111 236 88 133 77 136 113 207 208 162 210 196 192 186 267 308 335 4 20 15 47 154 61 44 77 69 55 22 35 32 20 354 77 103 119
325 323 318 314 315 317 322 319 318 318 321 322 325 323 326 327 325 324 327 327 326 325 327 327 325 323 326 328 329 333 342 324 304 284 245 185 209 209 215 195 157 157 145 108 143 121 120 86 162 104 122 140 307 143 126 245 126 136 111 112 214 203 238 161 206 228 276 274 283 293 357 99 262 144 211 86 313 31 56 41 46 54 37 54 67 83 113 139
318 319 322 321 316 315 318 319 317 317 318 320 321 322 323 322 323 324 325 326 323 324 326 328 326 325 324 326 323 346 340 319 305 270 271 202 228 223 212 189 154 154 158 150 185 142 150 175 165 111 78 106 356 151 124 256 155 223 119 191 241 214 251 221 228 258 200 269 302 314 305 58 271 167 332 108 123 67 115 127 66 110 143 153 136 128 142 159
321 321 318 313 310 313 314 313 315 316 316 317 318 320 320 321 322 324 323 324 323 322 325 328 327 324 325 323 330 345 26 276 284 249 285 253 220 230 216 179 162 162 132 101 155 131 111 108 130 116 105 107 289 89 134 242 134 263 133 181 229 226 232 263 198 238 258 249 272 270 311 4 257 237 96 142 90 338 246 205 161 181 170 170 164 160 165 173
318 319 317 315 317 313 310 312 312 312 315 315 318 320 321 319 321 320 323 322 322 322 324 326 328 324 325 322 338 62 297 9 264 234 266 319 233 211 194 174 161 154 156 126 91 80 113 129 134 72 103 196 357 71 244 251 191 106 209 180 203 166 220 253 235 232 233 195 218 283 349 292 124 43 121 139 128 229 204 208 211 170 168 162 170 177 178 183
319 320 317 314 311 312 313 311 310 312 313 315 317 318 316 318 318 320 320 320 321 321 323 326 326 326 325 326 350 120 358 267 317 323 356 349 307 206 173 155 151 137 123 128 130 145 104 91 125 138 135 120 187 166 264 202 137 232 316 237 231 232 250 269 268 217 51 334 301 326 284 339 357 109 199 137 167 232 206 170 175 173 176 172 155 162 179 187
322 317 320 320 319 311 308 311 313 314 315 314 315 315 315 315 317 319 320 322 318 320 322 324 326 327 332 353 113 67 174 278 315 235 54 59 60 136 148 144 136 139 134 114 134 147 164 123 125 167 115 109 273 190 238 97 237 172 252 297 291 218 239 265 282 305 303 315 280 210 306 327 267 38 177 107 263 285 283 162 156 154 152 156 165 187 189 190
323 325 323 321 315 312 314 309 308 311 312 313 314 312 313 313 314 316 320 316 318 316 321 324 327 329 344 23 347 321 85 244 256 330 14 83 94 123 125 113 137 142 141 155 152 154 141 141 166 138 109 156 216 169 251 188 94 185 243 243 265 232 243 265 272 290 288 274 265 326 324 279 332 337 323 86 289 73 113 128 138 143 158 164 181 188 202 207
320 319 316 312 311 308 308 312 308 309 308 311 312 311 311 314 314 317 314 315 315 315 316 323 326 326 34 90 121 337 243 251 304 281 122 100 116 113 124 132 158 152 137 122 151 155 142 214 117 179 204 178 206 139 229 145 291 203 220 212 272 272 279 273 297 275 265 282 260 351 267 273 257 261 44 289 95 117 116 121 139 146 156 178 192 197 198 206
315 318 318 318 312 306 301 302 305 306 308 308 311 310 310 312 315 312 312 312 313 312 314 323 321 331 29 10 109 234 263 228 298 325 139 128 130 134 112 117 152 137 119 168 124 141 184 194 172 172 127 124 156 218 142 140 231 184 200 220 235 258 313 312 230 287 282 230 136 201 263 275 340 81 274 338 212 122 115 134 149 159 170 185 192 201 212 208
317 317 317 318 316 308 302 303 303 305 307 307 309 308 308 311 312 309 309 309 310 310 313 311 329 329 40 22 176 221 253 64 27 79 103 127 140 151 162 154 161 141 131 144 177 185 142 120 141 128 9 211 130 258 125 225 156 155 166 209 264 293 279 254 307 271 45 285 185 183 245 16 337 77 209 206 197 146 130 148 156 171 173 185 195 202 211 221
318 316 317 313 313 311 311 308 306 305 304 305 307 307 307 310 309 308 306 308 305 309 309 306 307 313 227 241 225 220 317 54 61 59 118 135 151 178 88 164 172 159 146 167 215 191 162 173 129 121 177 135 120 142 246 195 136 213 155 273 291 353 329 256 215 256 157 248 162 164 95 298 335 167 271 247 165 153 138 154 165 172 185 193 198 203 211 220
318 318 317 312 309 310 309 308 306 309 306 305 308 306 308 308 306 304 304 302 304 302 304 303 284 187 353 306 232 242 284 261 311 39 46 144 115 277 134 157 180 165 172 165 196 190 218 165 121 150 207 120 176 132 151 108 264 71 52 146 321 3 337 306 282 293 141 248 129 153 263 265 258 247 280 209 160 131 134 155 169 180 189 196 199 207 215 225
313 313 314 315 313 310 308 307 305 305 305 307 305 304 306 304 303 300 297 294 297 300 299 290 95 147 181 245 271 252 236 260 291 290 232 169 153 230 144 149 183 191 306 119 155 165 210 186 124 152 145 116 251 285 45 341 25 191 247 62 200 21 270 295 16 46 146 146 152 75 223 281 225 267 244 209 174 154 157 169 173 181 191 199 203 207 210 216
312 313 313 314 314 310 306 307 308 312 308 307 307 306 306 303 298 295 294 295 290 289 273 257 233 126 60 264 269 268 246 208 252 238 146 153 177 38 207 146 176 189 176 86 66 192 179 103 76 43 268 260 176 356 313 33 4 22 98 288 325 151 278 298 336 163 159 4 118 99 336 247 295 244 261 220 192 172 162 178 181 184 191 198 203 208 208 215
310 310 313 309 310 312 311 312 315 311 307 310 309 307 304 299 295 289 286 282 279 260 234 142 171 193 322 294 255 311 73 180 246 223 176 162 172 195 170 152 125 137 152 264 251 68 134 146 163 186 225 31 95 92 46 45 338 358 122 254 151 129 255 358 208 325 256 267 20 151 200 330 4 343 331 309 195 209 182 182 185 190 194 196 205 208 200 210
309 308 309 307 308 311 311 310 310 312 311 313 311 310 304 296 289 284 276 262 262 216 173 160 153 190 188 231 325 280 229 227 229 71 182 180 170 157 111 108 141 137 143 327 193 153 277 162 310 65 25 148 165 119 99 308 307 298 11 159 209 146 15 179 308 347 16 91 246 9 217 211 175 29 353 5 342 248 227 209 202 196 195 202 206 203 194 211
307 306 304 308 307 309 311 312 310 314 315 315 318 313 307 299 300 289 136 150 143 111 201 316 151 215 272 275 282 234 253 304 225 188 164 182 152 142 125 148 94 122 115 109 45 152 236 186 49 195 140 107 125 107 149 208 180 189 228 78 107 5 250 246 69 241 23 7 174 324 13 272 344 340 347 328 331 254 238 228 238 216 209 213 217 208 207 210
306 308 307 310 308 311 313 315 318 316 316 325 320 314 296 310 52 81 107 146 122 50 16 211 157 154 206 285 267 329 302 242 153 132 164 134 184 144 89 88 112 127 144 122 233 152 341 76 40 96 183 167 189 155 154 205 159 175 158 157 144 105 234 223 248 273 177 82 158 196 207 2 24 7 349 1 4 61 316 316 287 205 221 219 222 226 220 224
308 309 311 311 311 314 316 315 309 312 319 323 346 328 3 43 21 30 349 261 239 200 171 176 208 309 324 286 61 306 271 30 182 234 130 161 121 141 160 122 70 63 123 170 144 197 137 151 183 190 186 194 188 165 180 180 148 126 96 108 115 97 281 284 268 252 267 30 245 195 64 47 24 14 5 350 8 28 15 6 8 38 309 275 278 261 263 249
308 309 312 312 311 311 314 314 313 310 318 335 350 2 80 178 177 222 184 232 234 257 267 232 199 218 233 28 349 27 20 319 58 303 189 148 129 128 220 134 155 140 192 176 138 213 93 149 219 190 193 182 190 182 110 92 107 136 113 102 79 148 278 239 270 350 312 112 333 73 78 48 29 18 15 15 38 24 8 1 15 355 89 114 250 283 275 274
308 308 309 310 309 310 313 309 313 313 332 62 11 295 269 238 193 93 331 294 254 234 241 250 218 261 263 273 283 20 96 290 316 289 274 138 162 153 241 138 153 176 140 107 69 106 157 185 218 218 187 95 76 110 122 138 123 80 148 140 85 280 245 285 275 320 330 90 347 89 78 31 349 353 27 34 37 30 14 31 25 22 12 1 323 220 258 278
307 309 311 312 309 309 307 305 307 319 315 120 173 195 242 229 268 14 20 264 276 226 219 229 238 243 257 261 267 126 172 227 256 293 197 133 150 172 145 138 158 164 124 149 146 131 166 279 233 188 137 119 62 95 106 74 72 116 98 98 209 232 50 304 290 48 351 78 118 106 92 50 348 343 33 28 31 16 32 44 41 34 29 10 349 326 283 231
305 307 308 308 307 309 310 315 324 324 262 212 220 210 239 260 326 354 29 227 277 286 188 209 204 218 233 208 205 170 179 229 172 269 258 139 152 165 127 153 149 137 181 166 140 147 181 201 183 127 152 144 136 128 119 133 152 339 141 133 157 179 228 160 253 342 311 45 114 109 73 34 11 13 7 2 357 30 30 36 38 34 32 29 26 27 17 360
303 304 305 304 305 307 316 321 304 235 276 218 231 244 247 262 276 272 107 308 287 277 189 218 163 230 226 144 132 139 207 264 205 229 201 158 143 117 189 162 115 188 151 162 123 140 230 246 118 131 136 144 128 134 177 135 175 181 233 177 187 169 189 272 325 25 21 13 326 125 56 41 320 17 20 345 7 37 28 39 34 28 28 27 31 31 27 28
303 302 303 304 307 313 319 293 178 337 315 256 226 198 195 226 243 187 148 62 292 261 104 245 148 259 136 202 148 160 102 244 204 214 177 191 157 146 122 158 134 189 152 143 160 173 188 158 124 150 157 165 164 175 211 154 163 141 255 183 181 169 163 192 269 81 3 144 214 91 126 156 316 28 3 347 29 41 35 36 27 24 26 29 31 29 31 31
299 302 301 303 310 322 333 241 15 320 297 280 92 5 331 310 270 168 151 346 332 211 166 115 157 230 169 179 150 135 106 253 182 163 173 190 165 191 124 190 57 77 149 149 69 250 123 171 120 98 112 149 139 201 230 145 127 202 243 171 166 129 166 206 150 177 211 247 314 53 113 131 87 4 357 312 23 42 38 29 26 27 30 32 32 32 33 32
300 300 303 303 303 308 261 292 308 282 237 103 350 352 311 312 318 145 53 61 286 144 142 197 223 153 163 156 154 164 201 165 116 226 177 186 113 6 115 184 162 159 169 104 164 260 148 175 157 148 124 129 189 202 178 164 138 216 192 154 165 172 188 149 151 161 241 116 264 332 358 73 45 282 314 309 27 32 37 25 27 30 32 34 32 31 29 31
299 303 302 304 295 297 288 241 254 252 223 5 331 314 315 301 202 154 108 139 253 319 97 97 257 124 61 139 174 195 335 202 120 164 131 147 155 148 118 192 151 153 159 149 177 175 281 166 188 163 156 195 216 201 158 166 161 259 140 75 81 79 67 116 118 108 339 74 268 273 27 109 296 298 344 327 59 43 31 27 30 35 41 35 30 28 28 29
300 300 300 297 306 264 237 216 232 244 290 314 306 299 298 198 135 59 51 262 236 341 201 194 170 188 145 147 191 214 229 2 123 88 131 146 210 73 42 142 128 132 151 50 151 204 171 317 149 110 178 202 189 186 166 173 185 136 111 92 55 43 57 40 63 91 75 25 260 252 338 128 123 284 303 8 52 49 41 35 38 42 42 38 34 29 24 22
302 302 299 300 269 289 309 265 255 239 247 310 316 289 180 169 129 106 202 232 338 219 79 135 196 118 141 149 171 212 213 203 116 131 126 104 102 80 130 49 42 72 64 54 184 335 357 47 123 234 164 76 106 102 247 195 107 125 119 123 87 21 17 29 343 34 111 264 265 324 111 89 140 243 80 80 90 77 71 65 49 47 42 40 32 28 24 22
295 295 293 281 250 231 237 239 119 22 349 337 331 338 127 138 353 171 216 143 91 284 3 213 232 155 178 173 146 168 178 100 164 142 147 156 154 152 174 150 158 117 181 177 213 351 279 240 242 313 223 141 107 85 16 68 309 82 99 107 128 213 52 275 16 178 162 177 23 328 342 41 42 57 112 103 85 87 72 60 58 52 46 40 33 28 26 23
289 287 288 284 279 247 244 257 292 314 334 340 326 331 103 128 222 236 267 309 204 303 261 11 205 175 167 158 185 170 154 159 183 132 131 113 140 167 210 142 176 136 175 241 140 99 267 284 305 267 322 193 132 134 166 106 216 120 135 151 125 128 101 161 275 261 319 295 259 11 344 89 147 72 66 84 81 72 76 70 62 54 50 41 32 23 21 22
296 296 286 253 253 241 248 251 262 323 336 327 264 83 43 131 249 190 230 275 260 227 317 354 346 133 166 174 175 151 159 209 147 173 144 156 139 165 199 354 162 138 88 136 156 190 118 211 265 124 246 181 160 162 177 165 153 191 130 151 173 138 152 168 179 164 195 191 284 307 69 234 160 218 93 68 84 83 75 79 70 60 48 41 32 27 25 23
297 287 265 263 252 247 238 227 214 191 205 328 67 97 159 230 259 304 254 305 25 327 333 325 306 135 176 181 140 162 149 111 140 130 142 141 186 158 172 177 253 112 137 125 241 81 184 201 253 201 191 152 171 196 133 111 104 116 158 68 111 205 146 128 202 145 168 119 34 1 104 233 129 303 78 103 86 78 71 61 63 56 51 37 30 26 24 23
303 265 235 240 218 233 203 198 171 149 137 138 102 153 212 190 230 44 334 345 66 28 321 318 333 167 147 147 177 173 243 114 203 114 100 161 157 165 196 170 177 178 129 149 196 120 37 292 269 314 122 171 202 137 194 148 150 204 100 173 214 158 103 93 60 66 99 66 35 297 149 85 351 272 89 137 95 81 68 55 44 42 45 37 29 22 22 21
289 304 280 247 232 178 165 158 157 143 160 196 114 224 226 295 203 59 346 332 174 125 321 35 298 146 167 177 174 172 213 90 191 114 187 130 89 189 178 230 145 149 180 128 301 195 135 235 301 139 215 291 178 122 106 39 147 84 140 220 142 97 105 126 163 347 55 140 194 40 183 158 152 174 162 134 106 88 74 60 42 33 33 33 22 19 16 16
307 288 282 272 247 151 141 150 140 147 200 132 200 246 203 275 130 141 207 229 241 24 272 210 264 137 184 156 198 167 201 150 203 97 144 195 152 184 130 153 182 165 203 162 122 259 124 268 305 331 199 350 1 91 47 18 355 157 184 152 111 183 172 339 97 125 119 89 156 354 135 343 164 251 261 180 130 114 91 79 56 34 30 24 17 11 11 13
277 295 294 327 84 131 139 144 138 143 117 144 231 239 258 251 240 181 237 266 35 269 272 233 209 246 148 177 187 144 160 177 160 132 124 249 113 180 184 170 162 229 186 144 132 187 52 147 286 322 89 332 40 71 154 300 21 43 105 86 317 102 145 128 193 164 109 171 87 357 152 225 193 234 209 178 142 121 109 77 66 46 38 29 23 12 10 8
241 241 244 57 117 125 140 152 148 157 78 174 183 226 269 309 338 246 260 227 288 115 253 277 215 187 156 197 161 151 160 137 138 228 90 257 103 331 210 345 153 182 185 175 161 178 95 115 129 284 322 58 128 354 174 162 128 58 46 20 30 28 215 103 34 75 154 155 161 139 182 244 231 255 73 65 88 108 118 99 74 52 35 34 28 23 15 11
255 276 34 119 129 142 149 169 173 174 161 265 186 258 295 265 347 265 253 246 269 205 238 255 246 195 166 126 168 137 83 88 88 109 143 114 137 140 278 159 173 126 99 134 159 190 91 351 157 326 24 22 45 255 238 202 177 156 152 181 161 120 112 122 209 36 73 107 169 151 206 197 55 14 117 116 116 104 97 105 90 58 44 36 28 24 21 13
284 175 71 131 135 163 177 136 226 169 102 168 192 200 248 54 278 263 279 280 242 257 220 239 248 205 114 135 162 103 109 67 38 94 297 140 280 126 232 96 158 160 133 167 185 226 150 129 88 61 138 120 236 352 25 83 114 115 103 107 139 124 107 100 132 222 50 51 114 118 119 219 49 42 47 92 101 96 96 95 86 62 43 36 28 24 23 21
204 262 47 143 162 193 34 58 21 91 165 231 293 298 191 255 252 272 298 278 270 213 217 203 206 148 210 137 129 96 117 78 51 149 146 103 114 83 277 253 157 76 77 14 74 222 85 76 63 346 329 304 307 301 352 49 44 63 33 44 52 79 155 167 172 175 128 153 78 33 74 175 108 80 68 82 84 79 64 68 76 60 47 33 30 24 20 17
121 223 86 152 175 232 60 137 192 226 260 292 211 250 302 255 272 276 250 270 244 303 2 301 338 111 148 124 115 139 169 92 25 67 60 94 75 320 7 41 166 109 119 201 137 212 84 296 113 87 22 338 341 351 355 350 57 69 63 338 323 177 69 131 105 67 99 200 170 131 184 209 132 93 80 78 84 78 74 66 59 66 48 41 33 29 20 20
297 271 46 119 183 284 334 177 122 166 215 232 84 320 255 264 233 240 246 266 261 251 89 315 172 266 57 77 91 89 23 121 130 356 134 92 110 345 351 28 103 110 1 102 103 104 86 155 88 114 136 131 132 152 183 126 81 337 65 357 20 46 53 65 112 40 110 205 117 121 139 108 117 111 85 71 76 75 67 72 74 62 56 42 40 35 28 24
331 113 323 127 210 232 256 187 217 166 133 124 57 256 249 261 287 258 206 256 239 297 129 251 314 34 59 85 53 50 45 14 114 188 91 64 358 25 350 1 52 99 86 79 59 76 114 77 53 152 152 174 198 202 266 103 41 56 332 29 359 20 16 105 95 104 172 173 109 237 162 139 137 124 97 64 52 66 71 67 58 55 51 46 45 44 40 34
296 100 160 189 223 247 253 314 330 31 158 138 145 280 260 255 268 304 172 230 348 347 17 60 346 56 20 81 96 69 15 80 66 86 23 119 244 135 306 45 34 57 99 75 39 82 81 76 15 65 55 75 93 74 49 78 99 57 53 21 22 30 21 69 113 187 155 111 271 146 145 121 136 115 111 88 72 68 64 56 56 55 51 38 37 40 38 37
132 267 269 230 145 201 142 281 188 104 13 73 236 342 266 294 279 241 323 166 312 11 79 351 28 33 35 116 132 92 65 67 37 99 77 11 93 358 37 3 52 336 66 53 26 101 108 99 99 80 60 57 43 76 88 76 71 74 69 58 47 31 44 75 66 39 76 141 182 145 136 113 118 106 101 87 74 72 63 59 53 55 54 47 43 38 34 29
169 223 236 303 321 237 148 195 163 155 156 164 275 284 290 258 286 263 225 325 24 360 51 90 349 347 31 354 87 119 146 99 4 333 144 79 75 85 72 11 47 28 67 63 33 93 99 47 68 101 87 51 35 40 66 95 91 64 50 55 57 59 61 68 66 42 87 99 118 125 111 98 105 111 101 93 81 74 72 61 55 52 46 48 46 39 33 26
42 356 31 358 68 93 56 89 112 117 117 229 187 243 230 253 269 334 12 47 47 8 360 78 36 45 53 57 62 79 249 157 153 134 229 129 56 83 126 176 173 11 50 79 93 339 106 173 185 244 77 45 32 56 66 77 84 74 51 53 59 62 63 60 77 71 79 80 98 109 106 105 83 101 104 96 87 83 68 59 58 49 47 47 46 41 31 18
322 287 330 333 17 297 56 71 115 120 89 288 192 273 208 277 80 102 70 19 102 72 70 119 112 72 47 68 62 70 22 110 93 122 170 144 121 207 122 235 124 88 18 50 35 8 63 149 162 198 95 71 15 80 90 89 80 72 50 32 26 17 44 11 43 336 111 140 129 117 107 132 134 114 102 87 80 73 71 68 60 50 47 51 48 41 34 15
312 277 287 290 113 327 105 47 41 76 252 214 181 242 177 287 276 323 69 357 28 50 60 125 102 85 43 61 52 48 314 65 93 103 114 90 96 80 74 91 90 142 124 98 195 70 83 134 130 132 85 95 194 33 24 11 58 48 27 37 49 72 97 81 36 33 40 128 135 147 126 106 129 126 109 89 81 77 66 55 62 59 53 52 46 41 33 14